User: anonymous   Login
Location: Caltech
(34.1382°N, 118.1253°W)
Time: 22:14:15
(UTC-07:00)
Language:

Hubble Space Telescope - Orbit

View from above orbital plane
View from above orbital plane
View from above satellite
View from above satellite

Ground track
Ground track

The orbit data is extracted from the following two-line orbital elements,

1 20580U 90037B   16119.98937501  .00000969  00000-0  49608-4 0  9999
2 20580  28.4696 223.5992 0002957  43.3258 297.8938 15.08323570227676
Epoch (UTC): 28 April 2016 23:44:42
Eccentricity: 0.0002957
inclination: 28.4696°
perigee height: 539 km
apogee height: 543 km
right ascension of ascending node: 223.5992°
argument of perigee: 43.3258°
revolutions per day: 15.08323570
mean anomaly at epoch: 297.8938°
orbit number at epoch: 22767

The dashed part of the orbit path shows where the satellite is in the earth's shadow,  

DLR